Airfield :
LOGIN :

Register | Disclaimer

   EN    FR    IT 

 










Legend :    VFR   Marginal VFR   IFR   Intensive IFR   Very Intensive IFR
Visi :
Ceiling :
>= 8 km
>= 3000ft
5 to 8 km
1000 to 3000 ft
1500m to 5 km
500 to 1000 ft
800 to 1500m
200 to 500 ft
< 800m
< 200 ft
Symbols :   Thunderstorms  Fog  Heavy snow  Heavy precipitations  Wind > 20 kt
SIGMETs :     Misc.  Thunderstorms  Icing  Turbulence  Mountain Waves  Volcanic Ashes






- Airport Elevation : 12 ft
- IATA code : CQF


LFAC - Calais

CURRENT METAR :
  • 271200Z AUTO 25024G37KT 9999 FEW029 BKN130 OVC140 17/11 Q1011

EXPIRED METARs :
  • 271130Z AUTO 25022KT 9999 FEW025 BKN100 OVC120 17/12 Q1011
  • 271100Z AUTO 24023KT CAVOK 17/12 Q1010
  • 271030Z AUTO 23021G32KT 190V260 9999 -RA BKN013/// BKN018/// BKN056/// ///CB 16/14 Q1009
  • 271000Z AUTO 19017G28KT 9999 -RA BKN015/// OVC021/// ///CB 17/16 Q1008

TAF N/A
ATIS : +33 3 21 00 11 14



MET'MAP, your aeronautical weather chart ! - Copyright ORBIFLY December 2007 - Disclaimer

ORBIFLY MET'MAP TEAM :

Programming & Development : Alexandra Zaïnal
Concept & original design : Baudouin d'Aumeries
Assistance for programming : Marc-Olivier Méhu
Technical & hardware support : Manuel Goepfert

Contact : metmap@orbifly.com




SOURCES & CREDITS :

   NOAA